カタログに戻る

FENGYUN 3E

運用中気象SSO
NORAD 49008·PAYLOAD·🇨🇳 China

打ち上げ Jul 4, 2021 から Jiuquan Satellite Launch Center

Loading…

次のパス (今後24時間)

TLE

最新Source: Space-Track

元期: Sep 14, 2026, 23:25 UTC

1 49008U 21062A   26257.97635383  .00000153  00000-0  93007-4 0  9990
2 49008  98.7544 260.4035 0001691 150.3649 209.7623 14.19911598269324

AllMySatでFENGYUN 3Eをリアルタイム追跡

Download on the App Store